Hartford Brainard Airport
KHFD : now visible

Airfield :











YOU CAN JOIN US ON...

 
LOGIN :

Register | Disclaimer

   EN    FR    IT 

 









Legend :    VFR   Marginal VFR   IFR   Intensive IFR   Very Intensive IFR
Visi :
Ceiling :
>= 8 km
>= 3000ft
5 to 8 km
1000 to 3000 ft
1500m to 5 km
500 to 1000 ft
800 to 1500m
200 to 500 ft
< 800m
< 200 ft
Symbols :   Thunderstorms  Fog  Heavy snow  Heavy precipitations  Wind > 20 kt






- Airport Elevation : 18 ft


KHFD - Hartford Brainard

CURRENT METAR :
  • 270653Z AUTO 29012G18KT 10SM -SN OVC034 03/M04 A2960 RMK AO2 SLP024 P0000 T00281044

EXPIRED METARs :
  • 270553Z AUTO 29010G16KT 240V330 9SM -SN BKN036 OVC110 02/M04 A2958 RMK AO2 SNB24 SLP016 P0000 60000 T00221039 10033 20022 53005

TAF N/A
KZBW FIR / North America



MET'MAP, your aeronautical weather chart ! - Copyright ORBIFLY December 2007 - Disclaimer

ORBIFLY MET'MAP TEAM :

Programming & Development : Alexandra Zaïnal
Concept & original design : Baudouin d'Aumeries
Assistance for programming : Marc-Olivier Méhu
Technical & hardware support : Manuel Goepfert

Contact : metmap@orbifly.com




SOURCES & CREDITS :

   NOAA       Earth
Advisory